sat.trackr.live / text

‹ back to catalog

BASIL

NORAD 65301 · 2025-185E

PAYLOAD ACTIVE UNKNOWN

§ Identity

Operator
Country
RWA
Launch date
2025-08-23
Launch site
RLLB
Launch vehicle
Mass (kg)
RCS (m²)

External: N2YO · Heavens-Above · Gunter

§ Orbital elements

Epoch: 2026-09-20T01:18:31.849056Z

Period
97.24 min
Inclination
97.9641°
Eccentricity
0.0015459
Mean motion
14.80871561 rev/d
Perigee alt
615.7 km
Apogee alt
637.4 km
Semi-major
7,004.7 km
B*
7.1686e-4
RAAN
345.6973°
Arg perigee
133.7856°
Mean anomaly
226.4638°
Rev number
5,787

§ Raw data

BASIL1 65301U 25185E   26263.05453529  .00005497  00000+0  71686-3 0  99932 65301  97.9641 345.6973 0015459 133.7856 226.4638 14.80871561 57876

JSON: /api/v1/satellites/65301 · /tle

For live sub-satellite position, see the globe view (requires WebGL).

§ Visibility from observer

Set your observer location to see the next 7 days of passes ≥ 10°. The values pass through the URL so the page stays shareable.

No JS? Fill the form by hand. The geolocation button needs JavaScript.